#timestamp,LO_Frequency,Hit 
1499256015.6,286046933.7,N
1499256035.4,286046931.1,N
1499256055.2,286046931.8,N
1499256075.1,286046931.8,N
1499256076.0,286046931.8,N
1499256095.8,286046931.9,N
1499256115.6,286046931.7,N
1499256135.5,286046929.3,Y
1499256155.3,286046994.5,N
1499256175.1,286046993.6,N
1499256195.9,286046994.2,N
1499256215.7,286046991.9,N
1499256235.5,286046993.0,N
1499256255.4,286046992.0,N
1499256275.2,286046991.7,N
1499256295.0,286046992.9,N
1499256295.9,286046992.9,N
1499256315.8,286046992.9,N
1499256335.6,286046990.7,N
1499256355.4,286046989.3,N
1499256375.3,286046991.6,N
1499256395.1,286046990.4,N
1499256415.8,286046989.3,N
1499256435.7,286046987.9,N
1499256455.5,286046985.3,N
1499256475.3,286046985.8,N
1499256495.2,286046985.4,N
1499256515.9,286046985.4,N
1499256535.7,286046987.4,N
1499256555.6,286046987.6,N
1499256575.4,286046989.9,N
1499256595.2,286046988.2,N
1499256615.0,286046989.6,N
1499256615.9,286046989.6,N
1499256635.8,286046989.9,N
1499256655.6,286046989.6,N
1499256675.4,286046989.2,N
1499256695.3,286046989.1,N
1499256715.1,286046989.6,N
1499256735.8,286046987.6,N
1499256755.7,286046988.2,N
1499256775.5,286046986.0,N
1499256795.3,286046986.7,N
1499256815.2,286046983.8,N
1499256835.9,286046984.1,N
1499256855.7,286046983.7,N
1499256875.6,286046986.8,N
1499256895.4,286046984.5,N
1499256915.2,286046982.8,N
1499256935.1,286046981.2,N
1499256936.0,286046981.2,N
1499256955.8,286046981.4,N
1499256975.6,286046980.8,N
1499256995.4,286046983.5,N
1499257015.3,286046981.0,N
1499257035.1,286046980.8,N
1499257055.8,286046981.1,N
1499257075.7,286046981.3,N
1499257095.5,286046982.0,N
1499257115.3,286046980.1,N
1499257135.2,286046978.1,N
1499257155.9,286046978.5,N
1499257175.7,286046977.9,N
1499257195.6,286046978.0,N
1499257215.4,286046978.1,N
1499257235.2,286046977.4,N
1499257255.1,286046978.1,N
1499257256.0,286046978.1,N
1499257275.8,286046978.2,N
1499257295.6,286046978.5,N
1499257315.5,286046978.5,N
1499257335.3,286046978.3,N
1499257355.1,286046977.6,N
1499257375.8,286046978.4,N
1499257395.7,286046974.1,N
1499257415.5,286046972.7,N
1499257435.3,286046973.7,N
1499257455.2,286046972.9,N
1499257475.9,286046975.6,N
1499257495.7,286046970.9,N
1499257515.6,286046971.3,N
1499257535.4,286046973.9,N
1499257555.2,286046974.0,N
1499257575.1,286046971.3,N
1499257576.0,286046971.3,N
1499257595.8,286046971.6,N
1499257615.6,286046971.6,N
1499257635.5,286046971.5,N
1499257655.3,286046971.6,N
1499257675.1,286046971.5,N
1499257695.8,286046971.7,N
1499257715.7,286046969.7,N
1499257735.5,286046970.7,N
1499257755.3,286046968.5,N
1499257775.2,286046969.0,N
1499257795.9,286046969.2,N
1499257815.7,286046968.8,N
1499257835.6,286046967.0,N
1499257855.4,286046967.6,N
1499257875.2,286046965.0,N
1499257895.1,286046964.8,N
1499257896.0,286046964.8,N
1499257915.8,286046965.1,N
1499257935.6,286046963.4,N
1499257955.5,286046963.6,N
1499257975.3,286046963.5,N
1499257995.1,286046963.5,N
1499258015.8,286046964.1,N
1499258035.7,286046962.0,N
1499258055.5,286046962.1,N
1499258075.3,286046961.6,N
1499258095.2,286046961.3,N
1499258115.0,286046962.3,N
1499258115.9,286046962.3,N
1499258135.7,286046960.1,N
1499258155.6,286046960.9,N
1499258175.4,286046960.0,N
1499258195.2,286046961.0,N
1499258215.1,286046959.2,N
1499258216.0,286046959.2,N
1499258235.8,286046956.7,N
1499258255.6,286046956.9,N
1499258275.5,286046957.1,N
1499258295.3,286046957.4,N
1499258315.1,286046954.9,N
1499258335.9,286046955.4,N
1499258355.7,286046955.5,N
1499258375.5,286046956.2,N
1499258395.4,286046955.6,N
1499258415.2,286046956.0,N
1499258435.0,286046954.0,N
1499258435.9,286046954.0,N
1499258455.8,286046953.4,N
1499258475.6,286046954.2,N
1499258495.4,286046954.8,N
1499258515.2,286046951.7,N
1499258535.1,286046954.7,N
1499258536.0,286046954.7,N
1499258555.8,286046952.4,N
1499258575.6,286046950.2,N
1499258595.5,286046950.1,N
1499258615.3,286046950.1,N
1499258635.1,286046953.2,N
1499258655.9,286046950.3,N
1499258675.7,286046950.8,N
1499258695.5,286046951.2,N
1499258715.4,286046948.7,N
1499258735.2,286046949.7,N
1499258755.0,286046949.9,N
1499258755.9,286046949.9,N
1499258775.8,286046950.0,N
1499258795.6,286046947.3,N
1499258815.4,286046947.2,N
1499258835.2,286046947.4,N
1499258855.1,286046947.1,N
1499258856.0,286046947.1,N
1499258875.8,286046947.7,N
1499258895.6,286046945.6,N
1499258915.5,286046945.5,N
1499258935.3,286046945.8,N
1499258955.1,286046946.4,N
1499258975.9,286046946.3,N
1499258995.7,286046946.4,N
1499259015.5,286046946.4,N
1499259035.4,286046944.9,N
1499259055.2,286046944.4,N
1499259075.0,286046945.0,N
1499259075.9,286046945.0,N
1499259095.8,286046944.9,N
1499259115.6,286046943.4,N
1499259135.4,286046940.5,N
1499259155.3,286046943.2,N
1499259175.1,286046943.5,N
1499259176.0,286046943.5,N
1499259195.8,286046941.7,N
1499259215.7,286046942.0,N
1499259235.5,286046939.3,N
1499259255.3,286046939.6,N
1499259275.1,286046940.2,N
1499259295.9,286046940.3,N
1499259315.7,286046940.3,N
1499259335.5,286046940.0,N
1499259355.4,286046937.7,N
1499259375.2,286046938.6,N
1499259395.0,286046938.5,N
1499259395.9,286046938.5,N
1499259415.8,286046935.9,N
1499259435.6,286046936.6,N
1499259455.4,286046936.3,N
1499259475.3,286046934.5,N
1499259495.1,286046937.2,N
1499259496.0,286046937.2,N
1499259515.8,286046937.1,N
1499259535.7,286046934.1,N
1499259555.5,286046934.4,N
1499259575.3,286046934.9,N
1499259595.2,286046935.3,N
